Regional Weather Roundup
Issued by NWS Cleveland, OH

Home | Current Version | Previous Version | Text Only | Print | Product List | Glossary Off
Versions: 1 2 3 4 5 6 7 8 9 10 11 12 13 14 15 16 17 18 19 20 21 22 23 24 25 26 27 28 29 30 31 32 33 34 35 36 37 38 39 40 41 42 43 44 45 46 47 48 49 50

000
ASUS41 KCLE 271412
RWRCLE
OHIO REGIONAL WEATHER ROUNDUP
NATIONAL WEATHER SERVICE WILMINGTON, OH
1000 AM EDT MON MAR 27 2017

NOTE: "FAIR" INDICATES FEW OR NO CLOUDS BELOW 12,000 FEET WITH NO
SIGNIFICANT WEATHER AND/OR OBSTRUCTIONS TO VISIBILITY.

OHZ001>008-015>018-024>027-034-035-043-044-271500-
   NORTHWEST OHIO

CITY           SKY/WX    TMP DP  RH WIND       PRES   REMARKS
DEFIANCE       CLOUDY    51  48  89 VRB6      29.96S
FINDLAY        CLOUDY    55  49  80 SW12      29.96R
TOLEDO EXPRESS CLOUDY    53  50  89 W12       29.94S
TOLEDO EXEC    CLOUDY    55  52  89 SW10      29.95S
LIMA           CLOUDY    52  49  89 W10       29.98R
$$

OHZ009>014-019>023-028>033-038-089-271500-
   NORTHEAST OHIO

CITY           SKY/WX    TMP DP  RH WIND       PRES   REMARKS
CLE-HOPKINS    CLOUDY    56  49  77 SW8       29.99R
CLE-LAKEFRONT  CLOUDY    56  50  80 SW13      29.95R
CUY CO. ARPT   CLOUDY    57  52  82 SW12      29.96R
LORAIN-ELYRIA  CLOUDY    53  48  83 SW9       29.97R
ASHTABULA      CLOUDY    55  53  93 SW7       29.95R
AKRON-CANTON   CLOUDY    55  49  80 SW12      29.98R
WOOSTER        CLOUDY    54  50  86 SW10      29.99R
MANSFIELD      CLOUDY    52  49  89 SW12      29.98R
YOUNGSTOWN     CLOUDY    55  51  86 SW10      29.97R
$$

OHZ042-051>053-060>062-070>072-077>081-271500-
  SOUTHWEST OHIO

CITY           SKY/WX    TMP DP  RH WIND       PRES   REMARKS
CINC-COVINGTON FAIR      58  51  78 NE3       30.00R
CINC-LUNKEN    FOG       50  50 100 CALM      30.02S VSB 1/4
HAMILTON       FAIR      55  53  93 CALM      30.01S
DAYTON         PTSUNNY   55  51  86 SW8       30.00R
WRIGHT-PAT AFB PTSUNNY   56  55  95 S7        30.00R
DAYTON GENERAL FAIR      54  50  86 S6        30.00R
WILMINGTON     FAIR      55  51  86 SW5       30.00S
$$

OHZ036-037-039>041-045>050-054>059-063>069-073>076-082>088-271500-
  CENTRAL AND SOUTHEAST OHIO

CITY           SKY/WX    TMP DP  RH WIND       PRES   REMARKS
COLUMBUS       PTSUNNY   56  52  86 W6        30.00S
OSU AIRPORT    CLOUDY    55  53  93 S6        30.00R
BOLTON FIELD   MOSUNNY   54  52  94 W6        30.01S
RICKENBACK AFB FAIR      54  53  96 CALM      30.01R
NEWARK         CLOUDY    55  51  86 W7        30.00S
MARION         CLOUDY    52  49  89 SW10      29.99R
LANCASTER      FAIR      57  52  83 W7        30.02R
ZANESVILLE     FAIR      57  50  77 W9        30.01R
NEW PHILLY     CLOUDY    56  51  84 SW6       30.01R
$$



USA.gov is the U.S. government's official web portal to all federal, state and local government web resources and services.